Погода в Новомитропольке

Россия / Красноярский край     56°32′06″N   89°38′33″E
темп.,
°C
ветер,
м/с
пор.,
м/с
влажн.,
%
обл.,
%
осадки,
мм/ч
давл.,
гПа
погр.,
м
9 декабря, чт
чт901:00−17зюз41194100 0.1 1036548
04:00−18зюз41195100 0.3 1036576
07:00−18зюз41194100 0.4 1038540
10:00−18зюз51294100 0.1 1039558
13:00−17зюз61491100 0.3 1039632
16:00−16зюз61589100 0.1 1040771
19:00−16зюз71688100 0.1 1040775
22:00−16зюз71787100 0.0 1039763
10 декабря, пт
пт1001:00−16зюз81888100 0.1 1039746
04:00−16зюз71887100 0.0 1039737
07:00−16зюз81987100 0.1 1038767
10:00−15зюз71891100 0.2 1039752
13:00−14зюз71691100 0.6 1039718
16:00−14зюз61391100 0.3 1039725
19:00−14зюз51291100 0.3 1041624
22:00−14зюз41292100 0.1 1041562
11 декабря, сб
сб1101:00−13зюз41291100 0.1 1040575
04:00−11юз41394100 0.2 1039641
07:00−10юз51392100 1.3 1037670
10:00−9юз41486100 0.0 1036629
13:00−7юз41584100 0.0 1033736
16:00−7ююз41487100 0.0 1031626
19:00−7ююз41487100 0.0 1028508
22:00−5юз41683100 0.0 1025724
12 декабря, вс
вс1201:00−4юз51574100 0.0 1022894
04:00−6зюз61376100 0.0 1020842
07:00−9зюз41185100 0.0 1020703
10:00−10зюз41093100 0.1 1020629
13:00−10з4992100 0.2 1020699
16:00−11з3893100 0.1 1020614
19:00−13з3994100 0.3 1021554
22:00−15з4994100 0.2 1023543
13 декабря, пн
пн1301:00−17з3895100 0.4 1025507
04:00−18з3896100 0.1 1026449
07:00−19з3896100 0.3 1028448
10:00−19зюз3896100 0.1 1029426
13:00−18зюз3893100 0.2 1029535
16:00−17зюз3995100 0.3 1029609
19:00−17юз3995100 0.5 1028665
22:00−17юз2896100 0.3 1027568